| time (UTC) | temp F | wind direction | speed MPH | gust MPH | rain 1hr in | rain 24hr in | rain mn in | humidity % | barometer mb |
| 20260831175002 | 73 | 148 | 2.0 | 5.0 | 0.00 | 0.95 | 0.32 | 62 | 1018.4 |
| 20260831174514 | 72 | 90 | 2.0 | 5.0 | 0.00 | 0.95 | 0.32 | 62 | 1018.4 |
| 20260831174026 | 72 | 169 | 3.0 | 6.0 | 0.00 | 0.95 | 0.32 | 63 | 1018.4 |
| 20260831173522 | 73 | 152 | 3.0 | 6.0 | 0.00 | 0.95 | 0.32 | 62 | 1018.4 |
| 20260831173028 | 73 | 167 | 1.0 | 5.0 | 0.00 | 0.95 | 0.32 | 64 | 1018.5 |
| 20260831172500 | 72 | 127 | 1.0 | 5.0 | 0.00 | 0.95 | 0.32 | 63 | 1018.5 |
| 20260831172005 | 72 | 119 | 2.0 | 5.0 | 0.00 | 0.95 | 0.32 | 65 | 1018.4 |
| 20260831171556 | 72 | 121 | 1.0 | 4.0 | 0.00 | 0.95 | 0.32 | 65 | 1018.5 |
| 20260831171016 | 72 | 307 | 1.0 | 4.0 | 0.00 | 0.95 | 0.32 | 64 | 1018.5 |
| 20260831170500 | 73 | 320 | 1.0 | 4.0 | 0.00 | 0.95 | 0.32 | 64 | 1018.5 |
| 20260831170014 | 73 | 174 | 1.0 | 5.0 | 0.00 | 0.95 | 0.32 | 64 | 1018.5 |
| 20260831165459 | 73 | 138 | 2.0 | 5.0 | 0.00 | 0.95 | 0.32 | 63 | 1018.5 |
| 20260831165028 | 74 | 97 | 1.0 | 4.0 | 0.00 | 0.95 | 0.32 | 63 | 1018.6 |
| 20260831164509 | 74 | 47 | 1.0 | 5.0 | 0.00 | 0.95 | 0.32 | 61 | 1018.7 |
| 20260831164000 | 74 | 38 | 2.0 | 5.0 | 0.00 | 0.95 | 0.32 | 62 | 1018.6 |
| 20260831163536 | 75 | 169 | 2.0 | 6.0 | 0.00 | 0.95 | 0.32 | 63 | 1018.5 |
| 20260831162517 | 75 | 138 | 2.0 | 5.0 | 0.00 | 0.95 | 0.32 | 62 | 1018.7 |
| 20260831162021 | 75 | 178 | 2.0 | 5.0 | 0.00 | 0.95 | 0.32 | 61 | 1018.7 |
| 20260831161510 | 76 | 168 | 2.0 | 7.0 | 0.00 | 0.95 | 0.32 | 60 | 1018.7 |
| 20260831161001 | 76 | 95 | 3.0 | 7.0 | 0.00 | 0.95 | 0.32 | 61 | 1018.8 |
| 20260831160513 | 76 | 101 | 2.0 | 5.0 | 0.00 | 0.95 | 0.32 | 62 | 1018.9 |
| 20260831160036 | 76 | 97 | 2.0 | 5.0 | 0.00 | 0.95 | 0.32 | 61 | 1018.9 |
| 20260831155516 | 75 | 215 | 2.0 | 5.0 | 0.00 | 0.95 | 0.32 | 61 | 1019.0 |
| 20260831155040 | 75 | 115 | 2.0 | 5.0 | 0.00 | 0.95 | 0.32 | 64 | 1019.0 |
| 20260831154007 | 75 | 237 | 2.0 | 5.0 | 0.00 | 0.95 | 0.32 | 61 | 1019.0 |
| 20260831153513 | 75 | 346 | 2.0 | 5.0 | 0.00 | 0.95 | 0.32 | 60 | 1019.1 |
| 20260831153008 | 75 | 98 | 1.0 | 6.0 | 0.00 | 0.95 | 0.32 | 63 | 1019.2 |
| 20260831152503 | 75 | 132 | 1.0 | 6.0 | 0.00 | 0.95 | 0.32 | 62 | 1019.2 |
| 20260831152005 | 75 | 163 | 2.0 | 5.0 | 0.00 | 0.95 | 0.32 | 61 | 1019.1 |
| 20260831151502 | 75 | 111 | 2.0 | 5.0 | 0.00 | 0.95 | 0.32 | 63 | 1019.1 |
| 20260831151002 | 75 | 136 | 2.0 | 5.0 | 0.00 | 0.95 | 0.32 | 63 | 1019.2 |
| 20260831150505 | 75 | 104 | 2.0 | 5.0 | 0.00 | 0.95 | 0.32 | 63 | 1019.1 |
| 20260831150001 | 74 | 288 | 2.0 | 5.0 | 0.00 | 0.95 | 0.32 | 64 | 1019.1 |
| 20260831145544 | 74 | 82 | 2.0 | 5.0 | 0.00 | 0.95 | 0.32 | 64 | 1019.0 |
| 20260831145020 | 74 | 340 | 2.0 | 5.0 | 0.00 | 0.95 | 0.32 | 63 | 1018.9 |
| 20260831144534 | 74 | 348 | 1.0 | 4.0 | 0.00 | 0.95 | 0.32 | 64 | 1018.9 |
| 20260831144017 | 73 | 157 | 1.0 | 5.0 | 0.00 | 0.95 | 0.32 | 64 | 1018.8 |
| 20260831143514 | 73 | 166 | 2.0 | 6.0 | 0.00 | 0.95 | 0.32 | 65 | 1018.9 |
| 20260831143027 | 73 | 97 | 2.0 | 6.0 | 0.00 | 0.95 | 0.32 | 67 | 1018.8 |
| 20260831142510 | 73 | 171 | 1.0 | 5.0 | 0.00 | 0.95 | 0.32 | 64 | 1018.7 |
| 20260831142025 | 73 | 168 | 1.0 | 5.0 | 0.00 | 0.95 | 0.32 | 64 | 1018.7 |
| 20260831141504 | 73 | 319 | 1.0 | 4.0 | 0.00 | 0.95 | 0.32 | 66 | 1018.7 |
| 20260831140508 | 73 | 169 | 1.0 | 5.0 | 0.00 | 0.95 | 0.32 | 68 | 1018.7 |
| 20260831140006 | 73 | 136 | 1.0 | 5.0 | 0.00 | 0.95 | 0.32 | 67 | 1018.6 |
| 20260831135459 | 73 | 98 | 1.0 | 5.0 | 0.00 | 0.95 | 0.32 | 69 | 1018.6 |
| 20260831135030 | 73 | 350 | 1.0 | 5.0 | 0.00 | 0.95 | 0.32 | 68 | 1018.6 |
| 20260831134529 | 72 | 229 | 1.0 | 4.0 | 0.00 | 0.95 | 0.32 | 71 | 1018.6 |
| 20260831134008 | 72 | 232 | 1.0 | 2.0 | 0.00 | 0.95 | 0.32 | 70 | 1018.6 |
| 20260831133504 | 71 | 241 | 1.0 | 5.0 | 0.00 | 0.95 | 0.32 | 73 | 1018.5 |
| 20260831133028 | 71 | 342 | 1.0 | 5.0 | 0.00 | 0.95 | 0.32 | 73 | 1018.5 |
| 20260831132512 | 71 | 155 | 1.0 | 5.0 | 0.00 | 0.95 | 0.32 | 77 | 1018.5 |
| 20260831132025 | 70 | 142 | 1.0 | 5.0 | 0.00 | 0.95 | 0.32 | 79 | 1018.5 |
| 20260831131509 | 70 | 67 | 1.0 | 4.0 | 0.00 | 0.95 | 0.32 | 80 | 1018.6 |
| 20260831131023 | 69 | 67 | 1.0 | 4.0 | 0.00 | 0.95 | 0.32 | 80 | 1018.5 |
| 20260831130541 | 69 | 184 | 1.0 | 2.0 | 0.00 | 0.95 | 0.32 | 82 | 1018.5 |
| 20260831130028 | 68 | 155 | 0.0 | 2.0 | 0.00 | 0.95 | 0.32 | 84 | 1018.5 |
| 20260831125005 | 67 | 151 | 0.0 | 2.0 | 0.00 | 0.95 | 0.32 | 87 | 1018.4 |
| 20260831124524 | 67 | 150 | 0.0 | 2.0 | 0.00 | 0.95 | 0.32 | 88 | 1018.3 |
| 20260831124030 | 67 | 123 | 0.0 | 4.0 | 0.00 | 0.95 | 0.32 | 88 | 1018.3 |
| 20260831123459 | 66 | 123 | 1.0 | 4.0 | 0.00 | 0.95 | 0.32 | 89 | 1018.2 |
| 20260831123001 | 66 | 326 | 1.0 | 3.0 | 0.00 | 0.95 | 0.32 | 89 | 1018.1 |
| 20260831122503 | 66 | 237 | 1.0 | 3.0 | 0.00 | 0.95 | 0.32 | 90 | 1018.1 |
| 20260831122025 | 66 | 323 | 0.0 | 4.0 | 0.00 | 0.95 | 0.32 | 90 | 1018.1 |
| 20260831121501 | 66 | 323 | 0.0 | 4.0 | 0.00 | 0.95 | 0.32 | 90 | 1018.1 |
| 20260831121001 | 66 | 323 | 0.0 | 4.0 | 0.00 | 0.95 | 0.32 | 90 | 1018.0 |
| 20260831120500 | 65 | 293 | 0.0 | 1.0 | 0.00 | 0.95 | 0.32 | 90 | 1018.1 |
| 20260831115540 | 65 | 293 | 0.0 | 2.0 | 0.00 | 0.95 | 0.32 | 90 | 1017.9 |
| 20260831114959 | 65 | 293 | 0.0 | 2.0 | 0.00 | 0.95 | 0.32 | 90 | 1017.9 |
| 20260831114503 | 65 | 254 | 0.0 | 0.0 | 0.00 | 0.95 | 0.32 | 90 | 1017.9 |
| 20260831114008 | 65 | 254 | 0.0 | 0.0 | 0.00 | 0.95 | 0.32 | 90 | 1017.8 |
| 20260831113506 | 65 | 254 | 0.0 | 0.0 | 0.00 | 0.95 | 0.32 | 90 | 1017.8 |
| 20260831112958 | 65 | 254 | 0.0 | 0.0 | 0.00 | 0.95 | 0.32 | 90 | 1017.8 |
| 20260831112002 | 65 | 254 | 0.0 | 1.0 | 0.00 | 0.95 | 0.32 | 90 | 1017.7 |
| 20260831110507 | 64 | 254 | 0.0 | 0.0 | 0.00 | 0.95 | 0.32 | 90 | 1017.5 |
| 20260831105500 | 64 | 254 | 0.0 | 0.0 | 0.00 | 0.95 | 0.32 | 89 | 1017.4 |
| 20260831105030 | 64 | 254 | 0.0 | 0.0 | 0.00 | 0.95 | 0.32 | 89 | 1017.3 |
| 20260831104502 | 64 | 254 | 0.0 | 0.0 | 0.00 | 0.95 | 0.32 | 89 | 1017.4 |
| 20260831104025 | 64 | 254 | 0.0 | 0.0 | 0.00 | 0.95 | 0.32 | 89 | 1017.3 |
| 20260831103458 | 64 | 254 | 0.0 | 0.0 | 0.00 | 0.95 | 0.32 | 89 | 1017.2 |
| 20260831103005 | 64 | 254 | 0.0 | 0.0 | 0.00 | 0.95 | 0.32 | 89 | 1017.1 |
| 20260831102505 | 64 | 254 | 0.0 | 0.0 | 0.00 | 0.95 | 0.32 | 89 | 1017.1 |
| 20260831102024 | 65 | 254 | 0.0 | 0.0 | 0.00 | 0.95 | 0.32 | 89 | 1017.0 |
| 20260831101500 | 65 | 254 | 0.0 | 0.0 | 0.00 | 0.95 | 0.32 | 89 | 1016.9 |
| 20260831100505 | 65 | 254 | 0.0 | 0.0 | 0.00 | 0.95 | 0.32 | 89 | 1016.8 |
| 20260831100021 | 65 | 254 | 0.0 | 0.0 | 0.00 | 0.95 | 0.32 | 89 | 1016.7 |
| 20260831095520 | 65 | 254 | 0.0 | 0.0 | 0.00 | 0.95 | 0.32 | 89 | 1016.8 |
| 20260831095003 | 65 | 254 | 0.0 | 0.0 | 0.00 | 0.95 | 0.32 | 89 | 1016.7 |
| 20260831094508 | 65 | 254 | 0.0 | 0.0 | 0.00 | 0.95 | 0.32 | 89 | 1016.6 |
| 20260831094011 | 65 | 254 | 0.0 | 0.0 | 0.00 | 0.95 | 0.32 | 89 | 1016.6 |
| 20260831093501 | 65 | 254 | 0.0 | 0.0 | 0.00 | 0.95 | 0.32 | 89 | 1016.5 |
| 20260831093000 | 65 | 254 | 0.0 | 0.0 | 0.00 | 0.95 | 0.32 | 89 | 1016.5 |
| 20260831092515 | 65 | 254 | 0.0 | 0.0 | 0.00 | 0.95 | 0.32 | 89 | 1016.4 |
| 20260831092001 | 65 | 254 | 0.0 | 0.0 | 0.00 | 0.95 | 0.32 | 89 | 1016.5 |
| 20260831091502 | 65 | 254 | 0.0 | 0.0 | 0.00 | 0.95 | 0.32 | 89 | 1016.5 |
| 20260831091011 | 65 | 254 | 0.0 | 0.0 | 0.00 | 0.95 | 0.32 | 89 | 1016.4 |
| 20260831090005 | 66 | 254 | 0.0 | 0.0 | 0.00 | 0.95 | 0.32 | 89 | 1016.4 |
| 20260831085503 | 66 | 254 | 0.0 | 0.0 | 0.00 | 0.95 | 0.32 | 89 | 1016.4 |
| 20260831084959 | 66 | 254 | 0.0 | 0.0 | 0.00 | 0.95 | 0.32 | 89 | 1016.3 |
| 20260831084507 | 66 | 254 | 0.0 | 0.0 | 0.00 | 0.95 | 0.32 | 89 | 1016.2 |
| 20260831084024 | 66 | 254 | 0.0 | 0.0 | 0.00 | 0.95 | 0.32 | 89 | 1016.2 |
| 20260831081516 | 66 | 254 | 0.0 | 0.0 | 0.00 | 0.95 | 0.32 | 89 | 1015.9 |
| 20260831081011 | 66 | 254 | 0.0 | 0.0 | 0.00 | 0.95 | 0.32 | 89 | 1016.0 |
| 20260831080512 | 66 | 254 | 0.0 | 0.0 | 0.00 | 0.95 | 0.32 | 89 | 1015.9 |
| 20260831080001 | 66 | 254 | 0.0 | 0.0 | 0.00 | 0.95 | 0.32 | 89 | 1015.8 |
| 20260831075027 | 66 | 254 | 0.0 | 0.0 | 0.00 | 0.95 | 0.32 | 88 | 1015.7 |
| 20260831074500 | 66 | 254 | 0.0 | 0.0 | 0.00 | 0.95 | 0.32 | 88 | 1015.7 |
| 20260831074005 | 66 | 254 | 0.0 | 1.0 | 0.00 | 0.95 | 0.32 | 88 | 1015.8 |
| 20260831073501 | 67 | 254 | 0.0 | 1.0 | 0.00 | 0.95 | 0.32 | 88 | 1015.6 |
| 20260831073004 | 67 | 213 | 0.0 | 0.0 | 0.00 | 0.95 | 0.32 | 88 | 1015.6 |
| 20260831072504 | 67 | 213 | 0.0 | 0.0 | 0.00 | 0.95 | 0.32 | 88 | 1015.5 |
| 20260831072004 | 67 | 213 | 0.0 | 0.0 | 0.00 | 0.95 | 0.32 | 88 | 1015.5 |
| 20260831071520 | 67 | 213 | 0.0 | 0.0 | 0.00 | 0.95 | 0.32 | 88 | 1015.5 |
| 20260831071004 | 67 | 213 | 0.0 | 0.0 | 0.00 | 0.95 | 0.32 | 88 | 1015.4 |
| 20260831070509 | 67 | 213 | 0.0 | 0.0 | 0.00 | 0.95 | 0.32 | 88 | 1015.3 |
| 20260831070000 | 67 | 213 | 0.0 | 0.0 | 0.00 | 0.95 | 0.32 | 88 | 1015.4 |
| 20260831065520 | 67 | 213 | 0.0 | 0.0 | 0.00 | 0.95 | 0.32 | 88 | 1015.4 |
| 20260831065004 | 67 | 213 | 0.0 | 0.0 | 0.00 | 0.95 | 0.32 | 88 | 1015.4 |
| 20260831064511 | 67 | 213 | 0.0 | 0.0 | 0.00 | 0.95 | 0.32 | 88 | 1015.3 |
| 20260831063959 | 67 | 213 | 0.0 | 0.0 | 0.00 | 0.95 | 0.32 | 88 | 1015.3 |
| 20260831063509 | 67 | 213 | 0.0 | 0.0 | 0.00 | 0.95 | 0.32 | 88 | 1015.2 |
| 20260831063001 | 68 | 213 | 0.0 | 0.0 | 0.00 | 0.95 | 0.32 | 88 | 1015.2 |
| 20260831062507 | 68 | 213 | 0.0 | 0.0 | 0.01 | 0.95 | 0.32 | 88 | 1015.2 |
| 20260831062011 | 68 | 213 | 0.0 | 0.0 | 0.01 | 0.95 | 0.32 | 88 | 1015.2 |
| 20260831061502 | 68 | 213 | 0.0 | 0.0 | 0.01 | 0.95 | 0.32 | 88 | 1015.2 |
| 20260831061002 | 68 | 213 | 0.0 | 0.0 | 0.01 | 0.95 | 0.32 | 88 | 1015.2 |
| 20260831060029 | 68 | 213 | 0.0 | 0.0 | 0.01 | 0.95 | 0.32 | 88 | 1015.1 |
| 20260831055020 | 68 | 213 | 0.0 | 0.0 | 0.01 | 0.95 | 0.32 | 88 | 1015.1 |
| 20260831054532 | 68 | 213 | 0.0 | 0.0 | 0.01 | 0.95 | 0.32 | 88 | 1015.0 |
| 20260831054005 | 68 | 213 | 0.0 | 0.0 | 0.02 | 0.95 | 0.32 | 88 | 1014.9 |
| 20260831053503 | 69 | 213 | 0.0 | 0.0 | 0.02 | 0.95 | 0.32 | 88 | 1015.0 |
| 20260831053008 | 69 | 213 | 0.0 | 0.0 | 0.03 | 0.95 | 0.32 | 88 | 1014.9 |
| 20260831052532 | 69 | 213 | 0.0 | 0.0 | 0.05 | 0.94 | 0.31 | 88 | 1014.9 |
| 20260831051507 | 69 | 213 | 0.0 | 0.0 | 0.17 | 0.94 | 0.31 | 88 | 1014.8 |
| 20260831051003 | 69 | 213 | 0.0 | 0.0 | 0.18 | 0.94 | 0.31 | 88 | 1014.7 |
| 20260831050027 | 69 | 213 | 0.0 | 0.0 | 0.27 | 0.94 | 0.31 | 88 | 1014.8 |
| 20260831045023 | 69 | 213 | 0.0 | 1.0 | 0.63 | 0.94 | 0.31 | 87 | 1014.9 |
| 20260831044507 | 69 | 213 | 0.0 | 1.0 | 0.78 | 0.94 | 0.31 | 87 | 1015.2 |
| 20260831044023 | 69 | 221 | 0.0 | 1.0 | 0.85 | 0.93 | 0.30 | 87 | 1015.2 |
| 20260831043506 | 69 | 221 | 0.0 | 1.0 | 0.88 | 0.93 | 0.30 | 87 | 1015.3 |
| 20260831042500 | 70 | 205 | 0.0 | 2.0 | 0.87 | 0.89 | 0.26 | 87 | 1015.4 |
| 20260831041536 | 70 | 132 | 0.0 | 2.0 | 0.76 | 0.77 | 0.14 | 87 | 1015.5 |
| 20260831040520 | 70 | 42 | 0.0 | 4.0 | 0.74 | 0.74 | 0.11 | 87 | 1015.4 |
| 20260831040050 | 70 | 142 | 1.0 | 4.0 | 0.65 | 0.65 | 0.02 | 87 | 1015.4 |
| 20260831035502 | 70 | 246 | 1.0 | 8.0 | 0.48 | 0.48 | 0.48 | 87 | 1015.4 |
| 20260831035028 | 70 | 129 | 1.0 | 8.0 | 0.29 | 0.29 | 0.29 | 86 | 1015.2 |
| 20260831034503 | 70 | 228 | 1.0 | 8.0 | 0.16 | 0.16 | 0.16 | 86 | 1015.2 |
| 20260831034003 | 71 | 244 | 0.0 | 6.0 | 0.08 | 0.08 | 0.08 | 86 | 1015.2 |
| 20260831033514 | 71 | 184 | 2.0 | 10.0 | 0.05 | 0.05 | 0.05 | 86 | 1015.2 |
| 20260831032502 | 71 | 219 | 1.0 | 6.0 | 0.02 | 0.02 | 0.02 | 86 | 1015.2 |
| 20260831032027 | 71 | 231 | 2.0 | 11.0 | 0.02 | 0.02 | 0.02 | 86 | 1015.2 |
| 20260831031510 | 71 | 186 | 2.0 | 11.0 | 0.01 | 0.01 | 0.01 | 86 | 1015.3 |
| 20260831031000 | 71 | 49 | 0.0 | 7.0 | 0.00 | 0.00 | 0.00 | 85 | 1015.2 |
| 20260831030528 | 71 | 146 | 1.0 | 7.0 | 0.00 | 0.00 | 0.00 | 85 | 1015.0 |
| 20260831030021 | 71 | 170 | 2.0 | 6.0 | 0.00 | 0.00 | 0.00 | 85 | 1015.1 |
| 20260831025004 | 71 | 143 | 1.0 | 6.0 | 0.00 | 0.00 | 0.00 | 85 | 1015.2 |
| 20260831024000 | 71 | 213 | 1.0 | 8.0 | 0.00 | 0.00 | 0.00 | 84 | 1015.3 |
| 20260831023023 | 71 | 222 | 2.0 | 9.0 | 0.00 | 0.00 | 0.00 | 84 | 1015.1 |
| 20260831022505 | 72 | 157 | 3.0 | 9.0 | 0.00 | 0.00 | 0.00 | 84 | 1015.0 |
| 20260831022018 | 72 | 215 | 3.0 | 11.0 | 0.00 | 0.00 | 0.00 | 83 | 1015.0 |
| 20260831021509 | 72 | 217 | 3.0 | 11.0 | 0.00 | 0.00 | 0.00 | 83 | 1015.0 |
| 20260831021000 | 72 | 176 | 3.0 | 8.0 | 0.00 | 0.00 | 0.00 | 83 | 1015.1 |
| 20260831020042 | 72 | 116 | 2.0 | 9.0 | 0.00 | 0.00 | 0.00 | 82 | 1015.2 |
| 20260831015459 | 72 | 180 | 3.0 | 9.0 | 0.00 | 0.00 | 0.00 | 82 | 1015.2 |
| 20260831015001 | 72 | 175 | 3.0 | 9.0 | 0.00 | 0.00 | 0.00 | 81 | 1015.1 |
| 20260831014506 | 72 | 191 | 3.0 | 12.0 | 0.00 | 0.00 | 0.00 | 81 | 1015.1 |
| 20260831014011 | 72 | 173 | 2.0 | 12.0 | 0.00 | 0.00 | 0.00 | 81 | 1015.1 |
| 20260831013505 | 72 | 231 | 2.0 | 9.0 | 0.00 | 0.00 | 0.00 | 80 | 1015.0 |
| 20260831012026 | 72 | 196 | 3.0 | 10.0 | 0.00 | 0.00 | 0.00 | 79 | 1014.9 |
| 20260831011502 | 72 | 120 | 2.0 | 9.0 | 0.00 | 0.00 | 0.00 | 79 | 1014.8 |
| 20260831011005 | 73 | 163 | 2.0 | 7.0 | 0.00 | 0.00 | 0.00 | 78 | 1014.8 |
| 20260831010506 | 73 | 227 | 3.0 | 9.0 | 0.00 | 0.00 | 0.00 | 78 | 1014.9 |
| 20260831010039 | 73 | 165 | 3.0 | 9.0 | 0.00 | 0.00 | 0.00 | 78 | 1014.9 |
| 20260831005510 | 73 | 150 | 3.0 | 8.0 | 0.00 | 0.00 | 0.00 | 77 | 1014.8 |
| 20260831004005 | 73 | 179 | 3.0 | 8.0 | 0.00 | 0.00 | 0.00 | 75 | 1014.8 |
| 20260831003504 | 73 | 215 | 3.0 | 7.0 | 0.00 | 0.00 | 0.00 | 74 | 1014.9 |
| 20260831003006 | 73 | 225 | 3.0 | 8.0 | 0.00 | 0.00 | 0.00 | 73 | 1014.8 |
| 20260831002508 | 74 | 197 | 3.0 | 10.0 | 0.00 | 0.00 | 0.00 | 72 | 1014.7 |
| 20260831001500 | 74 | 200 | 3.0 | 7.0 | 0.00 | 0.00 | 0.00 | 70 | 1014.7 |
| 20260831001002 | 74 | 202 | 2.0 | 7.0 | 0.00 | 0.00 | 0.00 | 70 | 1014.7 |
| 20260831000527 | 74 | 218 | 3.0 | 8.0 | 0.00 | 0.00 | 0.00 | 69 | 1014.6 |
| 20260831000026 | 74 | 137 | 4.0 | 11.0 | 0.00 | 0.00 | 0.00 | 68 | 1014.5 |
| 20260830235504 | 74 | 194 | 3.0 | 11.0 | 0.00 | 0.00 | 0.00 | 68 | 1014.4 |
| 20260830235002 | 74 | 132 | 3.0 | 7.0 | 0.00 | 0.00 | 0.00 | 67 | 1014.4 |
| 20260830234500 | 74 | 148 | 3.0 | 7.0 | 0.00 | 0.00 | 0.00 | 66 | 1014.4 |
| 20260830234004 | 74 | 240 | 3.0 | 8.0 | 0.00 | 0.00 | 0.00 | 65 | 1014.4 |
| 20260830233501 | 74 | 119 | 3.0 | 8.0 | 0.00 | 0.00 | 0.00 | 65 | 1014.5 |
| 20260830233026 | 75 | 180 | 4.0 | 8.0 | 0.00 | 0.00 | 0.00 | 65 | 1014.6 |
| 20260830232518 | 75 | 169 | 4.0 | 9.0 | 0.00 | 0.00 | 0.00 | 64 | 1014.5 |
| 20260830232015 | 75 | 196 | 3.0 | 9.0 | 0.00 | 0.00 | 0.00 | 64 | 1014.5 |
| 20260830231507 | 75 | 184 | 3.0 | 8.0 | 0.00 | 0.00 | 0.00 | 63 | 1014.5 |
| 20260830231004 | 75 | 204 | 4.0 | 11.0 | 0.00 | 0.00 | 0.00 | 63 | 1014.4 |
| 20260830230504 | 75 | 175 | 3.0 | 11.0 | 0.00 | 0.00 | 0.00 | 62 | 1014.4 |
| 20260830230008 | 75 | 207 | 4.0 | 11.0 | 0.00 | 0.00 | 0.00 | 62 | 1014.5 |
| 20260830225001 | 76 | 140 | 4.0 | 11.0 | 0.00 | 0.00 | 0.00 | 61 | 1014.6 |
| 20260830224533 | 76 | 178 | 5.0 | 12.0 | 0.00 | 0.00 | 0.00 | 61 | 1014.7 |
| 20260830224009 | 76 | 167 | 4.0 | 12.0 | 0.00 | 0.00 | 0.00 | 60 | 1014.6 |
| 20260830223525 | 77 | 111 | 3.0 | 8.0 | 0.00 | 0.00 | 0.00 | 60 | 1014.8 |
| 20260830223003 | 77 | 203 | 3.0 | 8.0 | 0.00 | 0.00 | 0.00 | 59 | 1014.8 |
| 20260830222502 | 77 | 166 | 3.0 | 7.0 | 0.00 | 0.00 | 0.00 | 59 | 1014.7 |
| 20260830222018 | 77 | 126 | 3.0 | 7.0 | 0.00 | 0.00 | 0.00 | 59 | 1014.7 |
| 20260830221501 | 77 | 246 | 3.0 | 9.0 | 0.00 | 0.00 | 0.00 | 58 | 1014.8 |
| 20260830221010 | 77 | 171 | 3.0 | 10.0 | 0.00 | 0.00 | 0.00 | 57 | 1014.7 |
| 20260830220504 | 77 | 196 | 4.0 | 10.0 | 0.00 | 0.00 | 0.00 | 57 | 1014.8 |
| 20260830220008 | 78 | 165 | 4.0 | 9.0 | 0.00 | 0.00 | 0.00 | 56 | 1014.8 |
| 20260830215545 | 78 | 188 | 4.0 | 9.0 | 0.00 | 0.00 | 0.00 | 56 | 1015.0 |
| 20260830215002 | 78 | 167 | 4.0 | 11.0 | 0.00 | 0.00 | 0.00 | 55 | 1015.0 |
| 20260830214503 | 78 | 237 | 4.0 | 11.0 | 0.00 | 0.00 | 0.00 | 54 | 1015.0 |
| 20260830213508 | 78 | 163 | 4.0 | 9.0 | 0.00 | 0.00 | 0.00 | 53 | 1015.0 |
| 20260830213000 | 79 | 137 | 3.0 | 9.0 | 0.00 | 0.00 | 0.00 | 53 | 1014.9 |
| 20260830212459 | 79 | 224 | 3.0 | 9.0 | 0.00 | 0.00 | 0.00 | 55 | 1015.0 |
| 20260830212005 | 79 | 167 | 2.0 | 6.0 | 0.00 | 0.00 | 0.00 | 54 | 1014.9 |
| 20260830211505 | 79 | 167 | 2.0 | 8.0 | 0.00 | 0.00 | 0.00 | 55 | 1014.9 |
| 20260830211042 | 79 | 246 | 2.0 | 8.0 | 0.00 | 0.00 | 0.00 | 55 | 1014.9 |
| 20260830210005 | 79 | 209 | 2.0 | 9.0 | 0.00 | 0.00 | 0.00 | 52 | 1015.0 |
| 20260830205547 | 80 | 137 | 2.0 | 6.0 | 0.00 | 0.00 | 0.00 | 54 | 1015.0 |
| 20260830205011 | 80 | 184 | 2.0 | 6.0 | 0.00 | 0.00 | 0.00 | 52 | 1015.0 |
| 20260830204505 | 80 | 179 | 2.0 | 6.0 | 0.00 | 0.00 | 0.00 | 53 | 1015.0 |
| 20260830204003 | 80 | 303 | 3.0 | 7.0 | 0.00 | 0.00 | 0.00 | 51 | 1015.0 |
| 20260830203459 | 80 | 173 | 3.0 | 10.0 | 0.00 | 0.00 | 0.00 | 51 | 1015.0 |
| 20260830203005 | 81 | 234 | 3.0 | 10.0 | 0.00 | 0.00 | 0.00 | 51 | 1015.1 |
| 20260830202501 | 81 | 227 | 4.0 | 10.0 | 0.00 | 0.00 | 0.00 | 50 | 1015.1 |
| 20260830202004 | 81 | 129 | 4.0 | 10.0 | 0.00 | 0.00 | 0.00 | 50 | 1015.1 |
| 20260830201503 | 81 | 238 | 4.0 | 11.0 | 0.00 | 0.00 | 0.00 | 50 | 1015.0 |
| 20260830200502 | 82 | 209 | 4.0 | 12.0 | 0.00 | 0.00 | 0.00 | 51 | 1015.2 |
| 20260830200011 | 82 | 217 | 5.0 | 12.0 | 0.00 | 0.00 | 0.00 | 48 | 1015.2 |
| 20260830195458 | 83 | 185 | 4.0 | 10.0 | 0.00 | 0.00 | 0.00 | 49 | 1015.2 |
| 20260830195002 | 83 | 112 | 3.0 | 8.0 | 0.00 | 0.00 | 0.00 | 49 | 1015.2 |
| 20260830194517 | 83 | 109 | 3.0 | 8.0 | 0.00 | 0.00 | 0.00 | 48 | 1015.3 |
| 20260830194001 | 83 | 128 | 3.0 | 7.0 | 0.00 | 0.00 | 0.00 | 47 | 1015.3 |
| 20260830193459 | 83 | 212 | 3.0 | 9.0 | 0.00 | 0.00 | 0.00 | 48 | 1015.4 |
| 20260830193004 | 83 | 198 | 3.0 | 9.0 | 0.00 | 0.00 | 0.00 | 45 | 1015.4 |
| 20260830192504 | 84 | 190 | 2.0 | 8.0 | 0.00 | 0.00 | 0.00 | 45 | 1015.5 |
| 20260830192008 | 84 | 100 | 2.0 | 8.0 | 0.00 | 0.00 | 0.00 | 46 | 1015.4 |
| 20260830191458 | 85 | 198 | 2.0 | 7.0 | 0.00 | 0.00 | 0.00 | 45 | 1015.6 |
| 20260830191004 | 85 | 195 | 3.0 | 8.0 | 0.00 | 0.00 | 0.00 | 46 | 1015.6 |
| 20260830190517 | 85 | 244 | 4.0 | 10.0 | 0.00 | 0.00 | 0.00 | 45 | 1015.6 |
| 20260830190009 | 85 | 236 | 3.0 | 10.0 | 0.00 | 0.00 | 0.00 | 43 | 1015.6 |
| 20260830185501 | 85 | 202 | 3.0 | 7.0 | 0.00 | 0.00 | 0.00 | 44 | 1015.7 |
| 20260830185003 | 85 | 219 | 3.0 | 7.0 | 0.00 | 0.00 | 0.00 | 42 | 1015.7 |
| 20260830184504 | 85 | 304 | 3.0 | 8.0 | 0.00 | 0.00 | 0.00 | 43 | 1015.9 |
| 20260830184005 | 86 | 168 | 4.0 | 8.0 | 0.00 | 0.00 | 0.00 | 42 | 1015.9 |
| 20260830183501 | 86 | 200 | 3.0 | 8.0 | 0.00 | 0.00 | 0.00 | 43 | 1016.0 |
| 20260830183003 | 87 | 205 | 3.0 | 9.0 | 0.00 | 0.00 | 0.00 | 45 | 1016.1 |
| 20260830182500 | 86 | 171 | 4.0 | 10.0 | 0.00 | 0.00 | 0.00 | 46 | 1016.1 |
| 20260830182022 | 86 | 91 | 4.0 | 12.0 | 0.00 | 0.00 | 0.00 | 42 | 1016.1 |
| 20260830181006 | 86 | 188 | 4.0 | 8.0 | 0.00 | 0.00 | 0.00 | 45 | 1016.3 |
| 20260830180458 | 85 | 229 | 4.0 | 8.0 | 0.00 | 0.00 | 0.00 | 43 | 1016.5 |
| 20260830175511 | 86 | 168 | 4.0 | 12.0 | 0.00 | 0.00 | 0.00 | 42 | 1016.4 |